Flag for Germany Weather past 2 weeks in Husum, Schleswig-Holstein, Germany

Now
57 °F

Cool.


Feels Like: 56 °F
Forecast: 56 / 65 °F
Wind: 7 mph from South

Location: Schleswig-Jagel

Current Time: Aug 30, 2014 at 2:48:33 AM

Latest Report: Aug 30, 2014 at 1:20 AM


Visibility: 4 mi

Pressure: 29.92 "Hg

Humidity: 94%

Dew point: 55 °F

Location of HusumLocation

Historic Weather in Husum — Graph

°F

Husum temperature yesterday

Maximum temperature yesterday: 68 °F (at 1:20 PM)
Minimum temperature yesterday: 55 °F (at 10:20 PM)
Average temperature yesterday: 62 °F

Past Weeks' High & Low Weather Summary

 TemperatureHumidityPressure
High73 °F (Aug 28, 4:20 PM)100% (Aug 17, 5:20 AM)30.04 "Hg (Aug 17, 5:20 AM)
Low39 °F (Aug 26, 6:20 AM)41% (Aug 28, 4:20 PM)29.39 "Hg (Aug 18, 11:20 AM)
Average56 °F81%29.82 "Hg
* Reported Aug 15 1:20 AM — Aug 30 1:20 AM, Husum, Weather by CustomWeather, © 2014

Note: Actual official high and low records may vary slightly from our data, if they occured in-between our weather recording intervals... More about our weather records

Advertising

Husum weather history for previous 24 hours

 ConditionsComfort  
Time TempWeatherWind HumidityBarometerVisibility
1:20 AM
Aug 30
57 °FCool.7 mph94%29.92 "Hg4 mi
12:20 AM57 °FCool.6 mph94%29.95 "Hg3 mi
11:20 PM
Aug 29
55 °FCool.6 mph94%29.92 "Hg4 mi
10:20 PM55 °FCool.5 mph94%29.92 "Hg4 mi
8:20 PM63 °FMild.7 mph77%29.92 "Hg4 mi
7:20 PM64 °FMild.9 mph73%29.92 "Hg5 mi
6:20 PM66 °FMild.14 mph68%29.92 "HgN/A
5:20 PM68 °FMild.17 mph64%29.92 "HgN/A
4:20 PM66 °FMild.17 mph73%29.89 "Hg6 mi
3:20 PM66 °FMild.17 mph78%29.89 "Hg6 mi
2:20 PM68 °FMild.18 mph73%29.89 "HgN/A
1:20 PM68 °FMild.15 mph78%29.89 "Hg5 mi
12:20 PM66 °FPartly sunny.14 mph83%29.89 "Hg5 mi
12:00 PM66 °FPartly sunny.14 mph83%29.89 "Hg5 mi
11:20 AM64 °FPartly sunny.12 mph88%29.89 "Hg4 mi
10:20 AM63 °FPartly sunny.7 mph94%29.89 "Hg4 mi
10:01 AM61 °FDrizzle. Fog.6 mph94%29.86 "Hg3 mi
9:48 AM61 °FDrizzle. Fog.5 mph94%29.89 "Hg2 mi
9:20 AM61 °FDrizzle. Partly sunny.3 mph94%29.89 "Hg6 mi
8:20 AM59 °FBroken clouds.2 mph88%29.89 "HgN/A
7:20 AM59 °FLight rain. Passing clouds.5 mph82%29.89 "Hg5 mi
6:20 AM59 °FPassing clouds.6 mph77%29.89 "HgN/A
5:20 AM59 °FPassing clouds.5 mph82%29.89 "HgN/A
4:20 AM57 °FCool.6 mph88%29.89 "HgN/A
3:20 AM59 °FCool.6 mph77%29.92 "Hg3 mi
2:20 AM61 °FCool.5 mph72%29.92 "HgN/A
Weather by CustomWeather, © 2014

See weather overviewHow to use our weather pages